[[{"header":{"parameterUnit":"m.s-1","parameterCategory":1,"la1":30.2991,"la2":30.254,"lo1":-89.0895,"lo2":-89.0444,"dx":0.0017,"dy":0.0017,"nx":28,"ny":28,"refTime":"2023-02-12T09:00:00:Z","depth":0,"parameterNumber":2,"parameterNumberName":"U-component_of_WINDS"},"data":[0,0,0,0,0,0,0,0,0,0,0,0,0,0,0,0,0,0,0,0,0,0,0,0,0,0,0,0,0,0,0,0,0,0,0,0,0,0,0,0,0,0,0,0,0,0,0,0,0,0,0,0,0,0,0,0,0,0,0.3625,0.3626,0,0.3661,0.3661,0.3662,0.3693,0.3694,0.3694,0.3694,0.3732,0.3732,0.3733,0,0,0,0,0,0,0,0,0,0,0,0,0,0.3585,0.3586,0.3625,0.3626,0.3626,0.3661,0.3661,0.3662,0.3693,0.3694,0.3694,0.3694,0.3731,0.3732,0.3733,0,0,0,0,0,0,0,0,0,0,0,0,0,0.361,0.3586,0.3625,0.3646,0.3648,0.3661,0.3661,0.3662,0.3693,0.3694,0.3694,0.3695,0.3731,0.3732,0.3733,0.3728,0,0,0.3736,0.3736,0,0,0,0,0,0,0,0,0.3608,0.3611,0.3642,0.3644,0.3647,0.3673,0.3661,0.3684,0.3693,0.3676,0.3694,0.3695,0.3712,0.3714,0.372,0.373,0.3731,0.3736,0.3737,0.3737,0.3737,0,0,0,0,0,0,0,0.3607,0.361,0.3639,0.3643,0.3646,0.3654,0.3658,0.3665,0.369,0.3678,0.368,0.3684,0.3713,0.3719,0.3721,0.3732,0.3736,0.3737,0.3738,0.3738,0.374,0.3739,0,0,0,0,0,0,0.3602,0.3608,0.3638,0.364,0.3629,0.3654,0.3659,0.3664,0.369,0.3695,0.3683,0.3685,0.3717,0.372,0.3722,0.3718,0.3737,0.3738,0.3739,0.374,0.374,0.3739,0,0,0,0,0,0,0.3601,0.3604,0.3637,0.3625,0.363,0.3654,0.366,0.3665,0.367,0.3695,0.3699,0.3684,0.3717,0.3721,0.3726,0.372,0.3738,0.3739,0.3741,0.374,0.3739,0.371,0,0,0,0,0,0,0.3599,0.3603,0.3602,0.3625,0.363,0.364,0.366,0.3665,0.3672,0.3675,0.3697,0.3701,0.3718,0.3725,0.3727,0.3722,0.374,0.3742,0.3741,0.374,0.3712,0.3708,0.3706,0,0,0,0,0,0.3598,0.3592,0.3601,0.3605,0.3628,0.3639,0.3643,0.3662,0.3671,0.367,0.3685,0.3701,0.372,0.3725,0.3728,0.3723,0.3742,0.3741,0.374,0.3713,0.3709,0.3706,0,0,0,0,0,0,0.3568,0.3595,0.3606,0.3608,0.3621,0.3645,0.3643,0.3657,0.3668,0.367,0.3694,0.3699,0.3702,0.3713,0.3718,0.372,0.3733,0.3733,0.3712,0.3708,0.3705,0.3702,0.3741,0,0,0,0,0,0.3561,0.3568,0.3592,0.3591,0.3597,0.3619,0.3624,0.3638,0.3653,0.3659,0.3675,0.3689,0.3698,0.3704,0.3714,0.3714,0.3719,0.3711,0.3708,0.3706,0.3705,0.3705,0.3702,0.3735,0.3735,0.3735,0,0,0.3548,0.3564,0.3567,0.3585,0.3597,0.3603,0.3623,0.3629,0.3634,0.366,0.3666,0.3678,0.3695,0.3698,0.3699,0.3707,0.3697,0.3704,0.3702,0.3702,0.3704,0.3701,0.3698,0.3734,0.3735,0.3735,0,0,0.3527,0.354,0.354,0.3552,0.3569,0.3584,0.3584,0.3606,0.3615,0.3621,0.3641,0.3647,0.3663,0.3674,0.3682,0.3666,0.368,0.3668,0.3652,0.3652,0.365,0.3648,0.3642,0.3639,0.3667,0.3667,0.3667,0,0.3508,0.3518,0.3539,0.3543,0.3551,0.3574,0.3575,0.3586,0.3606,0.361,0.3619,0.3639,0.3652,0.3658,0.3653,0.3659,0.366,0.3666,0.3648,0.3647,0.3645,0.3639,0.3637,0.3666,0.3666,0.3666,0.3666,0,0.3495,0.3501,0.35,0.3518,0.3526,0.3528,0.3549,0.3555,0.3568,0.3582,0.3588,0.3604,0.3618,0.3621,0.3634,0.3628,0.3632,0.3644,0.3658,0.364,0.3635,0.3633,0.3664,0.3664,0.3665,0.3665,0,0,0.3456,0.3485,0.3484,0.3493,0.3514,0.352,0.3524,0.3537,0.3541,0.3554,0.3558,0.3571,0.3582,0.3591,0.3605,0.3606,0.3591,0.3618,0.3619,0.3612,0.3586,0.3577,0.3574,0.3601,0.3601,0.3601,0.3585,0,0.3438,0.3446,0.3465,0.3467,0.3473,0.3495,0.3499,0.3512,0.3525,0.3533,0.3548,0.3556,0.357,0.3576,0.3577,0.3593,0.3586,0.3594,0.3605,0.3605,0.36,0.3572,0.3562,0.3546,0.3583,0.3583,0.3582,0,0.3419,0.343,0.3433,0.3454,0.3457,0.346,0.3473,0.348,0.3496,0.3506,0.3515,0.3531,0.3537,0.355,0.3558,0.3563,0.3568,0.3577,0.3577,0.3578,0.3592,0.3572,0.3541,0.3539,0.358,0.358,0.358,0,0.339,0.3406,0.341,0.3416,0.3441,0.3442,0.3452,0.3469,0.3476,0.3488,0.3492,0.3505,0.3512,0.3521,0.354,0.3548,0.3546,0.3561,0.3554,0.3554,0.3553,0.3552,0.3522,0.3556,0.3556,0.3556,0.3556,0,0.3368,0.3369,0.3397,0.3399,0.3401,0.3422,0.3423,0.3436,0.345,0.3455,0.3476,0.348,0.3505,0.3512,0.3527,0.3532,0.3535,0.3543,0.3547,0.3541,0.354,0.3545,0.3546,0.3556,0.3556,0.3556,0.3556,0,0.3336,0.3355,0.3361,0.3383,0.3389,0.3389,0.3409,0.3412,0.3426,0.3432,0.3435,0.3458,0.3467,0.3487,0.3503,0.3513,0.3513,0.3521,0.3508,0.351,0.3502,0.3503,0.3474,0.3471,0.3507,0.3507,0.3507,0,0.3321,0.3322,0.3345,0.335,0.3359,0.3367,0.3373,0.3395,0.3401,0.3419,0.342,0.3432,0.3442,0.3456,0.3474,0.3486,0.3494,0.3483,0.3496,0.349,0.3493,0.3493,0.3493,0.348,0.3479,0.3479,0.3479,0,0.3292,0.3302,0.3311,0.3323,0.333,0.3341,0.3353,0.3356,0.338,0.3386,0.3396,0.3404,0.342,0.3431,0.3445,0.3456,0.3471,0.3474,0.3473,0.3467,0.346,0.3464,0.35,0.3475,0.3475,0.3476,0.3476,0.3476,0.3268,0.327,0.3286,0.3296,0.3307,0.3317,0.3321,0.3336,0.3345,0.3359,0.3371,0.338,0.3396,0.3417,0.3427,0.3435,0.3442,0.3441,0.344,0.344,0.3437,0.3459,0.3437,0.3438,0.3438,0.3438,0.3438,0,0.3241,0.3252,0.326,0.3276,0.3283,0.3297,0.3311,0.3316,0.3324,0.3337,0.3347,0.3358,0.3369,0.3388,0.34,0.3402,0.3409,0.3405,0.3405,0.3407,0.343,0.3429,0.3399,0.3399,0.3399,0.3399,0.3399,0.3399,0.3227,0.3231,0.3242,0.3251,0.3263,0.3272,0.3278,0.3288,0.3299,0.3311,0.332,0.3332,0.3348,0.3361,0.3372,0.3377,0.3381,0.3374,0.3381,0.3402,0.3405,0.3409,0.3409,0.3374,0.3374,0.3358,0.3357,0.3357]},{"header":{"parameterUnit":"m.s-1","parameterCategory":1,"la1":30.2991,"la2":30.254,"lo1":-89.0895,"lo2":-89.0444,"dx":0.0017,"dy":0.0017,"nx":28,"ny":28,"refTime":"2023-02-12T09:00:00:Z","depth":0,"parameterNumber":3,"parameterNumberName":"V-component_of_WINDS"},"data":[0,0,0,0,0,0,0,0,0,0,0,0,0,0,0,0,0,0,0,0,0,0,0,0,0,0,0,0,0,0,0,0,0,0,0,0,0,0,0,0,0,0,0,0,0,0,0,0,0,0,0,0,0,0,0,0,0,0,-0.0429,-0.0429,0,-0.0489,-0.0489,-0.049,-0.0503,-0.0503,-0.0502,-0.0502,-0.0565,-0.0567,-0.0569,0,0,0,0,0,0,0,0,0,0,0,0,0,-0.0328,-0.0329,-0.0429,-0.0429,-0.043,-0.0489,-0.049,-0.049,-0.0503,-0.0503,-0.0502,-0.0502,-0.0565,-0.0567,-0.057,0,0,0,0,0,0,0,0,0,0,0,0,0,-0.0378,-0.033,-0.0428,-0.0444,-0.0446,-0.0489,-0.049,-0.0491,-0.0504,-0.0503,-0.0502,-0.0502,-0.0564,-0.0567,-0.057,-0.0603,0,0,-0.058,-0.0581,0,0,0,0,0,0,0,0,-0.0375,-0.0382,-0.0441,-0.0443,-0.0445,-0.0488,-0.0477,-0.0528,-0.0504,-0.0482,-0.0502,-0.0501,-0.054,-0.0545,-0.0558,-0.0606,-0.0608,-0.058,-0.0582,-0.0583,-0.0584,0,0,0,0,0,0,0,-0.0372,-0.0379,-0.0452,-0.0441,-0.0444,-0.0448,-0.0455,-0.0487,-0.0514,-0.0483,-0.0485,-0.0491,-0.0541,-0.0555,-0.056,-0.0609,-0.058,-0.0583,-0.0585,-0.0586,-0.0689,-0.069,0,0,0,0,0,0,-0.0365,-0.0376,-0.0451,-0.0454,-0.0408,-0.0451,-0.0458,-0.0475,-0.0514,-0.0519,-0.0492,-0.0492,-0.055,-0.0556,-0.0562,-0.0604,-0.0583,-0.0586,-0.0588,-0.0688,-0.0689,-0.069,0,0,0,0,0,0,-0.0363,-0.0372,-0.0448,-0.0416,-0.0426,-0.0453,-0.0472,-0.0476,-0.049,-0.052,-0.0525,-0.0501,-0.055,-0.0557,-0.0593,-0.0607,-0.0587,-0.059,-0.0687,-0.0688,-0.069,-0.0689,0,0,0,0,0,0,-0.036,-0.0371,-0.0383,-0.0416,-0.0427,-0.0477,-0.0473,-0.0478,-0.0495,-0.0496,-0.053,-0.0535,-0.055,-0.0588,-0.0596,-0.0611,-0.0593,-0.0686,-0.0688,-0.0689,-0.0688,-0.069,-0.0692,0,0,0,0,0,-0.0356,-0.038,-0.0383,-0.0392,-0.0443,-0.0478,-0.0485,-0.0501,-0.0496,-0.0509,-0.0529,-0.0534,-0.0604,-0.0592,-0.0601,-0.0617,-0.0685,-0.0687,-0.0689,-0.0687,-0.0689,-0.0691,0,0,0,0,0,0,-0.0348,-0.0384,-0.0389,-0.0423,-0.0447,-0.048,-0.0497,-0.0503,-0.0529,-0.0529,-0.0548,-0.0556,-0.0591,-0.0607,-0.0593,-0.0651,-0.0644,-0.0648,-0.0639,-0.0642,-0.0644,-0.064,-0.0595,0,0,0,0,0,-0.035,-0.0375,-0.0406,-0.0434,-0.0445,-0.0469,-0.0485,-0.0496,-0.0521,-0.0532,-0.0554,-0.0579,-0.0608,-0.0625,-0.0653,-0.069,-0.0698,-0.0705,-0.0707,-0.0709,-0.0712,-0.0735,-0.0739,-0.0696,-0.0696,-0.0696,0,0,-0.0355,-0.0378,-0.0393,-0.0433,-0.0452,-0.0479,-0.0478,-0.0505,-0.0525,-0.0536,-0.0571,-0.0588,-0.0618,-0.0655,-0.0672,-0.067,-0.0726,-0.0711,-0.0712,-0.0715,-0.0737,-0.0741,-0.0745,-0.0698,-0.0697,-0.0697,0,0,-0.0378,-0.0397,-0.0423,-0.0443,-0.0474,-0.0489,-0.0496,-0.0528,-0.0539,-0.0575,-0.0584,-0.0609,-0.0656,-0.0677,-0.0695,-0.0727,-0.0733,-0.0735,-0.0746,-0.0768,-0.0772,-0.0775,-0.0788,-0.0793,-0.0738,-0.0738,-0.0738,0,-0.0381,-0.042,-0.0436,-0.0464,-0.0482,-0.0493,-0.0521,-0.0539,-0.0577,-0.059,-0.0586,-0.0647,-0.0667,-0.071,-0.0718,-0.0731,-0.0741,-0.0732,-0.077,-0.0773,-0.0776,-0.0789,-0.0794,-0.0738,-0.0738,-0.0738,-0.0738,0,-0.0423,-0.045,-0.0468,-0.0504,-0.0524,-0.0552,-0.0573,-0.0591,-0.06,-0.0617,-0.0654,-0.0679,-0.0713,-0.0723,-0.0732,-0.0768,-0.0766,-0.0765,-0.0759,-0.078,-0.0793,-0.0798,-0.0739,-0.0739,-0.0739,-0.0739,0,0,-0.0442,-0.0488,-0.0494,-0.0512,-0.0546,-0.0568,-0.0597,-0.0629,-0.0646,-0.0671,-0.0697,-0.0737,-0.0738,-0.0757,-0.0769,-0.0788,-0.0814,-0.0786,-0.0787,-0.0792,-0.0858,-0.0859,-0.0865,-0.0818,-0.0819,-0.082,-0.0856,0,-0.0471,-0.0522,-0.0538,-0.0581,-0.0608,-0.0619,-0.0644,-0.0669,-0.0685,-0.0711,-0.0729,-0.0758,-0.0755,-0.0767,-0.0786,-0.0807,-0.0828,-0.0804,-0.0844,-0.0845,-0.0838,-0.0871,-0.0872,-0.0905,-0.0861,-0.0862,-0.0862,0,-0.0511,-0.0538,-0.0584,-0.0616,-0.0628,-0.065,-0.0683,-0.0706,-0.0735,-0.0746,-0.0768,-0.0778,-0.081,-0.0801,-0.0846,-0.0829,-0.0846,-0.0859,-0.0861,-0.0867,-0.0856,-0.088,-0.0916,-0.0922,-0.087,-0.0869,-0.0869,0,-0.0523,-0.057,-0.0605,-0.0619,-0.0657,-0.0673,-0.069,-0.0718,-0.0737,-0.0765,-0.0778,-0.081,-0.0827,-0.0852,-0.0871,-0.0862,-0.0915,-0.0907,-0.0926,-0.0926,-0.0938,-0.0937,-0.098,-0.0946,-0.0946,-0.0946,-0.0946,0,-0.0554,-0.0582,-0.0611,-0.0632,-0.0664,-0.0683,-0.0715,-0.0732,-0.0757,-0.0783,-0.0794,-0.0818,-0.0841,-0.0868,-0.0883,-0.092,-0.0927,-0.0938,-0.0942,-0.0938,-0.0937,-0.095,-0.0949,-0.0947,-0.0947,-0.0946,-0.0946,0,-0.0573,-0.0593,-0.0632,-0.0665,-0.0675,-0.0697,-0.0727,-0.0748,-0.0765,-0.0798,-0.0807,-0.0833,-0.0866,-0.0887,-0.0929,-0.0939,-0.098,-0.0982,-0.097,-0.0973,-0.0992,-0.099,-0.1046,-0.1055,-0.1013,-0.1013,-0.1014,0,-0.0593,-0.0615,-0.0651,-0.0669,-0.0686,-0.0715,-0.0735,-0.0754,-0.0774,-0.0809,-0.0827,-0.0861,-0.0889,-0.0942,-0.0966,-0.0998,-0.1003,-0.102,-0.1008,-0.1004,-0.1006,-0.1005,-0.1008,-0.1022,-0.1023,-0.1023,-0.1023,0,-0.0626,-0.0635,-0.0663,-0.0695,-0.0718,-0.0744,-0.077,-0.0784,-0.0808,-0.0831,-0.0865,-0.0886,-0.093,-0.0964,-0.0999,-0.1017,-0.1025,-0.1027,-0.1033,-0.103,-0.1024,-0.103,-0.0978,-0.1026,-0.1025,-0.1025,-0.1025,-0.1025,-0.0647,-0.0668,-0.0697,-0.0729,-0.075,-0.0775,-0.0797,-0.0817,-0.0846,-0.0883,-0.0892,-0.0928,-0.0958,-0.1006,-0.1025,-0.1055,-0.1052,-0.1061,-0.1064,-0.1067,-0.1068,-0.1017,-0.1061,-0.1061,-0.1061,-0.1061,-0.1061,0,-0.0682,-0.0702,-0.073,-0.0767,-0.0792,-0.0796,-0.0826,-0.0847,-0.0878,-0.0905,-0.0933,-0.0973,-0.1006,-0.1033,-0.1068,-0.1086,-0.1091,-0.1095,-0.1095,-0.1099,-0.1067,-0.1059,-0.1091,-0.1091,-0.1091,-0.1091,-0.1091,-0.1091,-0.0704,-0.074,-0.0753,-0.0801,-0.0821,-0.0856,-0.0873,-0.0896,-0.0918,-0.0962,-0.099,-0.1007,-0.1034,-0.1071,-0.1103,-0.111,-0.1123,-0.1127,-0.1135,-0.1105,-0.1101,-0.1098,-0.1091,-0.1129,-0.1129,-0.1166,-0.1166,-0.1166]}]]